When you browse on this site, cookies collect data to enhance your experience and personalize the content and advertising you see.
Visit our Privacy Policy to learn more. By continuing to use the site, you agree to this use of cookies and data.
  • Em Portugal
  • Lista de países
  • Para 7 dias
  • Temperatura da água
  • Mapa do tempo
  • Widgets de tempo
  • user-avatar
    Iniciar Sessão

    Previsão horária em Buchatino

    Hoje, 18 Setembro, Quarta-feira

    Tempo Temperatura Precipitação Vento Pressão Humidade
    00:00 +7°C° 0.3 mm 4 m/s 735 mmHg 90%
    01:00 +7°C° 0.3 mm 4 m/s 735 mmHg 90%
    02:00 +6°C° 0 mm 4 m/s 734 mmHg 92%
    03:00 +6°C° 1.5 mm 4 m/s 734 mmHg 92%
    04:00 +6°C° 1.5 mm 5 m/s 734 mmHg 91%
    05:00 +4°C° 1.5 mm 6 m/s 734 mmHg 91%
    06:00 +4°C° 0.5 mm 6 m/s 734 mmHg 90%
    07:00 +4°C° 0.5 mm 6 m/s 735 mmHg 89%
    08:00 +4°C° 0 mm 6 m/s 735 mmHg 89%
    09:00 +5°C° 0.1 mm 6 m/s 736 mmHg 85%
    10:00 +7°C° 0.1 mm 6 m/s 736 mmHg 82%
    11:00 +7°C° 0.1 mm 6 m/s 737 mmHg 79%
    12:00 +7°C° 0.1 mm 6 m/s 737 mmHg 78%
    13:00 +8°C° 0.1 mm 6 m/s 738 mmHg 76%
    14:00 +8°C° 0.1 mm 6 m/s 738 mmHg 75%
    15:00 +8°C° 0.1 mm 6 m/s 739 mmHg 75%
    16:00 +9°C° 0.1 mm 5 m/s 739 mmHg 75%
    17:00 +10°C° 0.1 mm 4 m/s 740 mmHg 75%
    18:00 +8°C° 0.2 mm 5 m/s 741 mmHg 79%
    19:00 +7°C° 0.2 mm 5 m/s 741 mmHg 84%
    20:00 +7°C° 0.2 mm 6 m/s 742 mmHg 89%
    21:00 +7°C° 0.2 mm 5 m/s 742 mmHg 90%
    22:00 +7°C° 0.2 mm 5 m/s 742 mmHg 91%
    23:00 +7°C° 0.2 mm 5 m/s 743 mmHg 92%

    Amanhã, 19 Setembro, Quinta-feira

    Tempo Temperatura Precipitação Vento Pressão Humidade
    00:00 +7°C° 0 mm 5 m/s 743 mmHg 91%
    01:00 +7°C° 0 mm 5 m/s 743 mmHg 91%
    02:00 +7°C° 0 mm 5 m/s 744 mmHg 90%
    03:00 +7°C° 0 mm 5 m/s 744 mmHg 90%
    04:00 +7°C° 0 mm 5 m/s 744 mmHg 90%
    05:00 +7°C° 0 mm 5 m/s 744 mmHg 90%
    06:00 +7°C° 0 mm 5 m/s 744 mmHg 89%
    07:00 +7°C° 0 mm 5 m/s 745 mmHg 89%
    08:00 +7°C° 0 mm 5 m/s 745 mmHg 88%
    09:00 +7°C° 0 mm 5 m/s 746 mmHg 85%
    10:00 +8°C° 0 mm 5 m/s 746 mmHg 82%
    11:00 +8°C° 0 mm 5 m/s 746 mmHg 79%
    12:00 +10°C° 0 mm 4 m/s 746 mmHg 77%
    13:00 +10°C° 0 mm 4 m/s 746 mmHg 74%
    14:00 +10°C° 0 mm 4 m/s 746 mmHg 72%
    15:00 +10°C° 0 mm 4 m/s 747 mmHg 71%
    16:00 +11°C° 0 mm 3 m/s 747 mmHg 70%
    17:00 +11°C° 0 mm 3 m/s 747 mmHg 69%
    18:00 +10°C° 0 mm 2 m/s 747 mmHg 74%
    19:00 +8°C° 0 mm 2 m/s 747 mmHg 80%
    20:00 +7°C° 0 mm 2 m/s 747 mmHg 85%
    21:00 +7°C° 0.1 mm 2 m/s 747 mmHg 87%
    22:00 +7°C° 0.1 mm 3 m/s 747 mmHg 89%
    23:00 +7°C° 0.1 mm 3 m/s 747 mmHg 91%

    Depois de amanhã, 20 Setembro, Sexta-feira

    Tempo Temperatura Precipitação Vento Pressão Humidade
    00:00 +5°C° 0 mm 3 m/s 747 mmHg 92%
    01:00 +5°C° 0 mm 4 m/s 747 mmHg 94%
    02:00 +4°C° 0 mm 4 m/s 747 mmHg 95%
    03:00 +5°C° 0 mm 4 m/s 747 mmHg 92%
    04:00 +5°C° 0 mm 4 m/s 747 mmHg 89%
    05:00 +6°C° 0 mm 5 m/s 747 mmHg 86%
    06:00 +6°C° 0 mm 5 m/s 747 mmHg 86%
    07:00 +5°C° 0 mm 6 m/s 748 mmHg 86%
    08:00 +4°C° 0 mm 6 m/s 748 mmHg 86%
    09:00 +5°C° 0 mm 6 m/s 748 mmHg 81%
    10:00 +7°C° 0 mm 6 m/s 749 mmHg 76%
    11:00 +7°C° 0 mm 6 m/s 749 mmHg 70%
    12:00 +8°C° 0.1 mm 6 m/s 749 mmHg 64%
    13:00 +9°C° 0.1 mm 6 m/s 749 mmHg 58%
    14:00 +10°C° 0.1 mm 6 m/s 749 mmHg 52%
    15:00 +10°C° 0 mm 5 m/s 749 mmHg 54%
    16:00 +9°C° 0 mm 5 m/s 749 mmHg 56%
    17:00 +10°C° 0 mm 4 m/s 750 mmHg 57%
    18:00 +7°C° 0 mm 4 m/s 750 mmHg 63%
    19:00 +7°C° 0 mm 3 m/s 750 mmHg 69%
    20:00 +4°C° 0 mm 3 m/s 751 mmHg 75%
    21:00 +4°C° 0 mm 3 m/s 751 mmHg 78%
    22:00 +4°C° 0 mm 2 m/s 751 mmHg 81%
    23:00 +4°C° 0 mm 2 m/s 751 mmHg 84%

    21 Setembro, Sábado

    Tempo Temperatura Precipitação Vento Pressão Humidade
    00:00 +4°C° 0 mm 2 m/s 751 mmHg 85%
    01:00 +3°C° 0 mm 2 m/s 751 mmHg 85%
    02:00 +3°C° 0 mm 2 m/s 751 mmHg 86%
    03:00 +3°C° 0 mm 2 m/s 751 mmHg 84%
    04:00 +2°C° 0 mm 3 m/s 751 mmHg 82%
    05:00 +3°C° 0 mm 3 m/s 751 mmHg 80%
    06:00 +4°C° 0 mm 3 m/s 750 mmHg 77%
    07:00 +5°C° 0 mm 3 m/s 750 mmHg 74%
    08:00 +6°C° 0 mm 4 m/s 750 mmHg 72%
    09:00 +6°C° 0 mm 5 m/s 750 mmHg 74%
    10:00 +7°C° 0 mm 5 m/s 749 mmHg 76%
    11:00 +7°C° 0 mm 6 m/s 749 mmHg 78%
    12:00 +8°C° 0.1 mm 6 m/s 749 mmHg 80%
    13:00 +9°C° 0.1 mm 6 m/s 749 mmHg 82%
    14:00 +10°C° 0.1 mm 6 m/s 748 mmHg 84%
    15:00 +10°C° 0 mm 6 m/s 748 mmHg 83%
    16:00 +11°C° 0 mm 6 m/s 748 mmHg 82%
    17:00 +12°C° 0 mm 5 m/s 748 mmHg 81%
    18:00 +12°C° 0 mm 5 m/s 748 mmHg 82%
    19:00 +10°C° 0 mm 5 m/s 748 mmHg 84%
    20:00 +10°C° 0 mm 5 m/s 748 mmHg 85%
    21:00 +10°C° 0 mm 5 m/s 748 mmHg 86%
    22:00 +10°C° 0 mm 5 m/s 747 mmHg 87%
    23:00 +9°C° 0 mm 5 m/s 747 mmHg 88%

    22 Setembro, Domingo

    Tempo Temperatura Precipitação Vento Pressão Humidade
    00:00 +9°C° 0 mm 5 m/s 747 mmHg 90%
    01:00 +9°C° 0 mm 5 m/s 747 mmHg 92%
    02:00 +8°C° 0 mm 5 m/s 747 mmHg 93%
    03:00 +9°C° 0 mm 5 m/s 747 mmHg 92%
    04:00 +9°C° 0 mm 5 m/s 747 mmHg 92%
    05:00 +9°C° 0 mm 5 m/s 747 mmHg 91%
    06:00 +9°C° 0 mm 5 m/s 747 mmHg 88%
    07:00 +10°C° 0 mm 5 m/s 747 mmHg 86%
    08:00 +10°C° 0 mm 5 m/s 747 mmHg 84%
    09:00 +12°C° 0 mm 5 m/s 747 mmHg 81%
    10:00 +13°C° 0 mm 5 m/s 747 mmHg 79%
    11:00 +14°C° 0 mm 5 m/s 748 mmHg 76%
    12:00 +14°C° 0 mm 4 m/s 748 mmHg 75%
    13:00 +14°C° 0 mm 4 m/s 748 mmHg 74%
    14:00 +14°C° 0 mm 4 m/s 748 mmHg 73%
    15:00 +14°C° 0 mm 3 m/s 748 mmHg 73%
    16:00 +14°C° 0 mm 3 m/s 748 mmHg 73%
    17:00 +15°C° 0 mm 2 m/s 748 mmHg 73%
    18:00 +13°C° 0 mm 2 m/s 748 mmHg 75%
    19:00 +10°C° 0 mm 2 m/s 748 mmHg 77%
    20:00 +10°C° 0 mm 1 m/s 748 mmHg 79%
    21:00 +8°C° 0 mm 2 m/s 748 mmHg 75%
    22:00 +7°C° 0 mm 2 m/s 748 mmHg 70%
    23:00 +7°C° 0 mm 3 m/s 748 mmHg 66%

    23 Setembro, Segunda-feira

    Tempo Temperatura Precipitação Vento Pressão Humidade
    00:00 +5°C° 0 mm 3 m/s 748 mmHg 66%
    01:00 +5°C° 0 mm 3 m/s 748 mmHg 67%
    02:00 +5°C° 0 mm 3 m/s 748 mmHg 67%
    03:00 +5°C° 0 mm 3 m/s 747 mmHg 69%
    04:00 +5°C° 0 mm 3 m/s 746 mmHg 70%
    05:00 +4°C° 0 mm 4 m/s 746 mmHg 72%
    06:00 +5°C° 0 mm 4 m/s 745 mmHg 73%
    07:00 +6°C° 0 mm 4 m/s 745 mmHg 75%
    08:00 +7°C° 0 mm 5 m/s 744 mmHg 76%
    09:00 +9°C° 0 mm 5 m/s 744 mmHg 73%
    10:00 +12°C° 0 mm 5 m/s 743 mmHg 70%
    11:00 +14°C° 0 mm 5 m/s 743 mmHg 67%
    12:00 +14°C° 0 mm 4 m/s 742 mmHg 68%
    13:00 +14°C° 0 mm 4 m/s 741 mmHg 68%
    14:00 +14°C° 0 mm 4 m/s 740 mmHg 68%
    15:00 +14°C° 0 mm 3 m/s 740 mmHg 69%
    16:00 +14°C° 0 mm 3 m/s 739 mmHg 69%
    17:00 +14°C° 0 mm 3 m/s 739 mmHg 69%
    18:00 +13°C° 0 mm 2 m/s 738 mmHg 72%
    19:00 +12°C° 0 mm 2 m/s 738 mmHg 75%
    20:00 +10°C° 0 mm 2 m/s 738 mmHg 77%
    21:00 +10°C° 0 mm 1 m/s 738 mmHg 80%
    22:00 +10°C° 0 mm 1 m/s 737 mmHg 82%
    23:00 +9°C° 0 mm 1 m/s 737 mmHg 85%
    Mostrar mais